Location: Augustenthal
(51.7167°N, 10.2833°E)
Time: 04:38:07
(UTC+00:00)

Cosmos 2242 Rocket - Pass Details

Date: 18 May 2021
Orbit: 619 x 650 km, 82.5° (Epoch: 14 June)

Event Time Altitude Azimuth Distance (km) Brightness Sun altitude
Exits shadow 22:27:54 27° 211° (SSW) 1,231 4.7 -17.8°
Maximum altitude 22:30:15 61° 283° (WNW) 722 3.9 -17.8°
Drops below altitude 10° 22:34:44 10° 5° (N) 2,042 7.4 -18.0°
Sets 22:37:02 0° 9° (N) 2,961 8.4 -18.0°
